Location: Beadle
(51.4667°N, 109.0000°W)
Time: 04:13:16
(UTC+00:00)

Altair - Pass Details

Date: 04 June 2022
Orbit: 1501 x 1682 km, 47.2° (Epoch: 30 June)

Event Time Altitude Azimuth Distance (km) Brightness Sun altitude
Rises 22:59:32 0° 252° (WSW) 4,807 11.0 38.3°
Reaches altitude 10° 23:02:37 10° 250° (WSW) 3,845 10.9 37.8°
Maximum altitude 23:12:22 68° 171° (S) 1,763 8.4 36.3°
Drops below altitude 10° 23:22:24 10° 91° (E) 3,945 9.2 34.7°
Sets 23:25:36 0° 89° (E) 4,937 9.6 34.2°
